Theta_e
301 300 300 299 298 299 299 299 298 299 299 301 301 303 302 302 303 303 303 303 302 302 302 302 303 304 304 303 303 304 304 304
300 300 299 298 297 297 297 297 296 297 296 296 298 298 300 300 301 301 301 299 299 298 299 299 300 300 300 301 301 300 301 303
299 297 296 296 296 297 296 296 296 295 295 295 296 297 297 296 297 297 297 296 296 296 296 296 297 298 298 298 298 298 300 302
297 297 295 295 295 295 295 294 295 295 295 294 294 295 295 294 294 293 295 295 294 293 293 294 296 297 296 297 297 297 296 300
297 295 294 294 294 295 294 294 293 293 293 291 290 290 290 291 291 291 293 294 293 293 293 293 295 295 295 295 296 296 297 296
295 294 295 294 294 293 292 293 292 292 291 290 289 289 289 289 289 290 291 293 293 293 294 294 293 294 294 294 295 295 297 297
295 295 295 293 292 291 290 291 291 291 290 289 289 287 287 287 288 289 289 291 292 292 293 293 293 293 293 294 295 294 294 295
294 293 292 291 290 290 289 290 289 290 289 289 288 288 287 287 287 289 287 289 289 290 292 291 291 292 293 293 292 292 291 292
294 293 292 291 290 289 289 289 289 290 289 289 289 289 289 287 290 289 287 289 289 290 290 290 290 290 292 292 291 291 291 290
294 293 291 290 289 288 288 288 289 290 291 291 291 291 290 289 290 290 288 288 289 288 288 287 288 289 290 291 290 290 290 288
293 291 290 289 289 288 287 288 288 291 292 291 291 291 290 290 289 288 286 287 287 285 286 286 286 287 288 290 288 288 288 285
292 290 290 289 288 287 287 288 289 291 291 291 290 289 287 287 286 286 286 285 285 282 282 283 283 285 286 286 286 285 285 283
292 290 289 288 288 287 287 287 288 289 290 290 287 286 286 285 284 284 284 283 283 282 281 281 283 284 284 284 282 282 281 281
291 289 288 288 288 288 287 288 288 289 289 286 285 285 284 283 283 283 283 282 280 280 280 280 281 283 283 283 280 279 279 279
291 289 289 289 289 288 288 288 289 290 288 286 284 284 284 283 282 281 281 281 279 278 279 279 281 283 283 282 279 277 278 277
293 291 289 288 288 289 289 289 290 289 287 285 283 283 283 282 281 280 280 280 278 278 278 279 281 283 282 280 278 277 276 276
296 292 289 288 288 288 288 289 289 287 284 283 283 283 282 281 280 279 279 278 278 277 277 278 279 281 283 281 279 277 276 276
296 291 289 289 289 289 288 287 286 285 283 283 282 282 281 280 280 279 277 275 275 275 276 277 277 280 281 280 278 276 275 275
296 290 290 289 289 289 286 286 284 284 283 282 281 280 280 279 278 276 275 273 268 268 272 273 276 278 280 278 277 275 274 274
Wind_Speed
11 11 11 9 8 8 8 6 8 7 5 4 4 4 5 6 6 7 9 8 11 8 7 8 8 7 8 8 8 6 4 6
10 9 9 9 8 8 7 8 6 5 4 4 4 3 3 6 7 11 11 10 10 10 7 8 8 8 8 9 6 9 3 8
10 8 7 7 8 7 8 7 7 5 3 2 2 1 4 3 5 8 9 10 11 10 9 7 8 6 8 9 9 6 3 7
12 9 8 7 8 7 8 7 8 7 7 4 4 3 3 4 6 6 6 8 9 9 8 7 8 7 6 8 8 9 6 6
12 11 8 8 7 8 8 7 8 7 7 5 7 4 4 3 3 3 5 6 8 8 7 7 8 5 7 7 7 7 6 6
14 12 11 9 8 8 7 8 8 7 7 7 5 5 3 2 3 5 6 6 8 9 9 8 7 5 6 7 7 7 5 5
12 11 11 8 7 8 7 8 7 7 7 7 6 6 4 4 5 4 4 5 6 9 9 8 8 7 7 6 7 7 6 6
14 14 11 9 8 8 7 8 7 7 7 6 5 6 6 6 4 4 4 5 5 7 8 8 7 9 8 7 7 7 7 6
14 13 12 10 9 8 8 7 7 7 6 5 4 6 4 4 6 4 3 4 4 6 8 8 10 10 9 7 6 6 7 7
14 12 12 10 8 8 9 7 7 6 5 4 4 4 5 4 4 3 3 4 3 6 7 8 9 9 10 7 6 8 7 8
12 12 12 8 9 8 8 7 7 5 5 4 4 5 4 4 3 4 6 6 8 8 9 9 8 9 9 9 8 9 8 9
13 12 12 11 9 8 8 7 7 5 4 4 5 5 4 4 4 5 6 7 8 9 9 8 8 9 9 7 8 10 11 11
13 14 12 12 11 9 8 7 7 6 5 4 5 6 5 5 6 6 8 8 9 7 8 8 8 9 8 8 10 10 11 11
11 13 13 12 12 10 9 7 7 6 5 6 6 6 6 6 7 8 10 9 9 8 8 8 8 8 7 10 10 10 10 11
13 13 13 13 12 11 9 8 6 8 8 7 6 6 7 7 7 8 9 8 8 8 8 7 8 8 9 10 10 10 10 10
16 16 14 14 13 11 9 7 9 10 10 9 6 7 8 8 8 9 8 8 8 8 8 8 7 8 7 9 10 10 10 10
20 16 17 18 16 14 11 9 9 11 11 9 7 8 8 8 8 9 8 7 7 8 8 9 8 8 17 18 10 8 10 11
20 20 19 17 16 14 12 11 11 12 11 8 8 8 8 8 8 8 8 7 7 7 7 6 9 9 16 18 15 7 8 8
19 17 16 16 16 14 13 13 13 12 10 9 8 8 8 8 8 7 6 5 4 3 5 6 6 10 16 17 16 8 7 8
Wind_Direction
130 117 104 96 91 80 69 48 29 9 358 4 37 58 40 42 45 43 44 36 34 28 21 19 11 13 21 359 351 351 326 337
126 120 112 107 90 84 82 65 35 31 3 358 16 30 26 41 38 38 48 36 28 29 24 14 11 15 15 2 338 352 346 345
133 126 106 99 101 98 87 75 58 41 36 1 8 352 59 54 41 45 42 40 32 27 18 11 13 8 10 4 5 345 341 348
149 135 133 128 111 105 107 93 72 49 36 23 7 27 41 30 35 31 41 45 40 29 19 5 16 13 7 357 1 357 341 327
150 141 138 123 111 100 100 89 80 67 51 51 51 51 45 11 17 24 28 31 36 29 20 11 13 9 5 354 353 341 337 329
153 149 142 127 123 119 111 99 86 76 65 62 58 55 52 19 13 20 31 28 29 22 20 9 9 6 359 350 343 338 348 336
145 142 135 123 114 108 105 99 85 79 69 62 70 76 74 48 28 35 15 32 20 20 17 14 9 10 6 353 7 7 1 352
150 149 137 131 120 118 112 101 91 91 86 74 75 84 71 60 46 38 21 28 28 19 17 20 17 11 9 13 14 16 9 10
153 149 145 133 125 114 113 110 105 100 89 86 70 67 71 58 56 44 24 12 24 19 26 23 22 17 6 20 22 23 21 23
155 142 140 130 126 119 124 117 113 113 128 105 87 90 88 78 68 65 32 348 22 52 36 27 25 23 10 28 25 23 35 22
148 141 136 134 130 126 122 123 127 136 132 122 128 118 113 107 97 80 50 6 41 43 35 25 16 24 25 31 37 27 32 33
145 141 144 141 134 134 130 130 136 149 149 155 153 142 127 97 67 56 53 58 59 56 35 22 12 24 22 44 53 38 31 47
144 144 147 148 145 145 144 152 151 170 176 132 103 101 90 82 67 62 59 69 52 52 45 30 20 24 20 43 45 38 41 38
146 152 160 159 154 155 154 156 167 170 121 113 98 95 91 82 71 65 60 80 64 46 40 34 21 18 24 69 53 45 44 40
159 166 169 166 157 157 160 166 163 135 120 106 103 94 93 85 79 71 66 76 64 54 40 28 23 38 52 67 58 53 49 44
181 176 175 160 155 154 158 149 140 130 116 110 110 102 94 89 81 74 71 69 72 54 48 36 32 39 69 65 61 52 48 45
188 182 167 161 157 159 163 148 137 120 119 122 118 102 101 98 91 82 77 71 66 60 46 49 43 56 71 72 71 59 49 42
195 178 170 159 153 155 161 139 129 123 121 129 121 113 110 103 100 96 91 80 72 54 41 40 58 61 70 71 68 57 49 35
177 159 158 156 152 151 139 137 132 127 130 133 126 120 115 110 106 109 100 88 66 49 36 28 49 66 72 72 66 49 38 30